ENY1888 KOKC-KMCI

Flight info

Callsign ENY1888
Flight time 0h 54m
Altitude 37000
Route WENDY3 BELMN ZOURA WUTNG3
Aircraft E75L/M-SDE3GILORVW/S

Departure

Time 2026-04-26 05:03
Airport OKC Will Rogers World Airport (KOKC)

Arrival

Time 2026-04-26 05:57
Airport Kansas City International Airport (KMCI)
Time Latitude Longitude Altitude Speed Heading
2026-04-26 04:36 35.39458 -97.59513 1292 ft 0 kts 345°
2026-04-26 04:50 35.39455 -97.59512 1292 ft 2 kts 345°
2026-04-26 04:50 35.39441 -97.59508 1292 ft 2 kts 345°
2026-04-26 04:51 35.39426 -97.59503 1292 ft 2 kts 345°
2026-04-26 04:51 35.39417 -97.59500 1292 ft 2 kts 345°
2026-04-26 04:51 35.39404 -97.59493 1292 ft 2 kts 324°
2026-04-26 04:51 35.39393 -97.59481 1292 ft 2 kts 308°
2026-04-26 04:52 35.39385 -97.59465 1292 ft 2 kts 291°
2026-04-26 04:52 35.39381 -97.59448 1292 ft 2 kts 274°
2026-04-26 04:52 35.39381 -97.59439 1292 ft 1 kts 266°
2026-04-26 04:52 35.39381 -97.59436 1292 ft 0 kts 268°
2026-04-26 04:54 35.39381 -97.59441 1292 ft 1 kts 270°
2026-04-26 04:54 35.39381 -97.59463 1292 ft 3 kts 270°
2026-04-26 04:55 35.39378 -97.59494 1292 ft 4 kts 250°
2026-04-26 04:55 35.39352 -97.59526 1292 ft 6 kts 203°
2026-04-26 04:55 35.39307 -97.59532 1291 ft 7 kts 179°
2026-04-26 04:55 35.39249 -97.59531 1290 ft 5 kts 180°
2026-04-26 04:56 35.39218 -97.59553 1290 ft 6 kts 243°
2026-04-26 04:56 35.39215 -97.59609 1290 ft 7 kts 271°
2026-04-26 04:56 35.39215 -97.59674 1290 ft 8 kts 270°
2026-04-26 04:56 35.39215 -97.59747 1290 ft 9 kts 269°
2026-04-26 04:57 35.39215 -97.59830 1290 ft 9 kts 277°
2026-04-26 04:57 35.39251 -97.59907 1289 ft 11 kts 319°
2026-04-26 04:57 35.39313 -97.59975 1289 ft 12 kts 316°
2026-04-26 04:57 35.39378 -97.60049 1289 ft 13 kts 316°
2026-04-26 04:58 35.39450 -97.60130 1288 ft 14 kts 317°
2026-04-26 04:58 35.39526 -97.60220 1288 ft 15 kts 316°
2026-04-26 04:58 35.39612 -97.60319 1286 ft 18 kts 316°
2026-04-26 04:58 35.39659 -97.60377 1285 ft 7 kts 320°
2026-04-26 04:59 35.39712 -97.60401 1284 ft 8 kts 354°
2026-04-26 04:59 35.39777 -97.60403 1284 ft 9 kts
2026-04-26 04:59 35.39847 -97.60402 1284 ft 10 kts
2026-04-26 04:59 35.39923 -97.60402 1284 ft 11 kts 360°
2026-04-26 05:00 35.40006 -97.60402 1284 ft 12 kts
2026-04-26 05:00 35.40094 -97.60401 1284 ft 13 kts 359°
2026-04-26 05:00 35.40189 -97.60402 1285 ft 13 kts
2026-04-26 05:00 35.40284 -97.60400 1286 ft 13 kts
2026-04-26 05:01 35.40380 -97.60401 1286 ft 14 kts 357°
2026-04-26 05:01 35.40477 -97.60405 1286 ft 9 kts 359°
2026-04-26 05:01 35.40524 -97.60405 1285 ft 7 kts
2026-04-26 05:01 35.40571 -97.60438 1284 ft 9 kts 293°
2026-04-26 05:02 35.40577 -97.60519 1284 ft 10 kts 270°
2026-04-26 05:02 35.40562 -97.60571 1283 ft 6 kts 197°
2026-04-26 05:02 35.40489 -97.60573 1284 ft 28 kts 179°
2026-04-26 05:02 35.40156 -97.60571 1282 ft 71 kts 180°
2026-04-26 05:03 35.39458 -97.60570 1279 ft 128 kts 181°
2026-04-26 05:03 35.38435 -97.60578 1384 ft 159 kts 179°
2026-04-26 05:03 35.37337 -97.60645 1984 ft 157 kts 181°
2026-04-26 05:03 35.36268 -97.60740 2605 ft 149 kts 186°
2026-04-26 05:04 35.35247 -97.61176 3064 ft 164 kts 205°
2026-04-26 05:04 35.34301 -97.61880 3820 ft 160 kts 208°
2026-04-26 05:04 35.33328 -97.62529 4457 ft 162 kts 204°
2026-04-26 05:04 35.32317 -97.63105 5100 ft 163 kts 204°
2026-04-26 05:05 35.31270 -97.63669 5687 ft 168 kts 204°
2026-04-26 05:05 35.30243 -97.64297 6342 ft 166 kts 225°
2026-04-26 05:05 35.29789 -97.65511 7036 ft 163 kts 271°
2026-04-26 05:05 35.30223 -97.66885 7267 ft 196 kts 313°
2026-04-26 05:06 35.31547 -97.67643 7472 ft 231 kts 348°
2026-04-26 05:06 35.33245 -97.67872 7607 ft 264 kts 352°
2026-04-26 05:06 35.35201 -97.67690 7867 ft 293 kts
2026-04-26 05:06 35.37250 -97.67328 8504 ft 301 kts
2026-04-26 05:07 35.39319 -97.67046 9314 ft 302 kts
2026-04-26 05:07 35.41388 -97.66801 10151 ft 301 kts
2026-04-26 05:07 35.43495 -97.66571 10836 ft 306 kts
2026-04-26 05:07 35.45658 -97.66344 11255 ft 321 kts 359°
2026-04-26 05:08 35.47953 -97.66106 11612 ft 336 kts 360°
2026-04-26 05:08 35.50303 -97.65862 11985 ft 349 kts 360°
2026-04-26 05:08 35.52776 -97.65606 12421 ft 359 kts 359°
2026-04-26 05:08 35.55270 -97.65347 12988 ft 364 kts 359°
2026-04-26 05:09 35.57806 -97.65083 13640 ft 365 kts 359°
2026-04-26 05:09 35.60334 -97.64822 14298 ft 367 kts 359°
2026-04-26 05:09 35.62885 -97.64558 14903 ft 369 kts 360°
2026-04-26 05:09 35.65443 -97.64293 15471 ft 372 kts 360°
2026-04-26 05:10 35.68046 -97.64024 16061 ft 375 kts
2026-04-26 05:10 35.70627 -97.63755 16632 ft 377 kts
2026-04-26 05:10 35.73242 -97.63468 17169 ft 381 kts
2026-04-26 05:10 35.75835 -97.62535 17692 ft 389 kts 17°
2026-04-26 05:11 35.78368 -97.61357 18231 ft 392 kts 17°
2026-04-26 05:11 35.80928 -97.60165 18751 ft 395 kts 17°
2026-04-26 05:11 35.83486 -97.58971 19242 ft 399 kts 17°
2026-04-26 05:11 35.86108 -97.57746 19749 ft 401 kts 17°
2026-04-26 05:12 35.88717 -97.56526 20230 ft 405 kts 17°
2026-04-26 05:12 35.91349 -97.55296 20702 ft 408 kts 17°
2026-04-26 05:12 35.93498 -97.54291 21111 ft 409 kts 16°
2026-04-26 05:13 35.93856 -97.54125 21175 ft 410 kts 16°
2026-04-26 05:13 35.96533 -97.52876 21642 ft 413 kts 16°
2026-04-26 05:13 35.99241 -97.51611 22099 ft 416 kts 16°
2026-04-26 05:13 36.01915 -97.50362 22549 ft 418 kts 16°
2026-04-26 05:14 36.04039 -97.49368 22907 ft 420 kts 16°
2026-04-26 05:14 36.04927 -97.48953 23049 ft 421 kts 16°
2026-04-26 05:14 36.07698 -97.47656 23511 ft 423 kts 16°
2026-04-26 05:14 36.10449 -97.46368 23923 ft 426 kts 15°
2026-04-26 05:15 36.13211 -97.45073 24358 ft 428 kts 15°
2026-04-26 05:15 36.16025 -97.43753 24748 ft 431 kts 15°
2026-04-26 05:15 36.18818 -97.42443 25152 ft 434 kts 15°
2026-04-26 05:15 36.21637 -97.41118 25565 ft 436 kts 15°
2026-04-26 05:16 36.24484 -97.39780 25963 ft 438 kts 15°
2026-04-26 05:16 36.27344 -97.38434 26377 ft 440 kts 15°
2026-04-26 05:16 36.30204 -97.37087 26762 ft 442 kts 15°
2026-04-26 05:16 36.33082 -97.35731 27140 ft 444 kts 14°
2026-04-26 05:17 36.36011 -97.34350 27502 ft 447 kts 15°
2026-04-26 05:17 36.38911 -97.32981 27861 ft 449 kts 15°
2026-04-26 05:17 36.41872 -97.31582 28188 ft 451 kts 15°
2026-04-26 05:17 36.44833 -97.30182 28610 ft 451 kts 15°
2026-04-26 05:18 36.47747 -97.28803 29059 ft 451 kts 15°
2026-04-26 05:18 36.50680 -97.27414 29557 ft 449 kts 14°
2026-04-26 05:18 36.53678 -97.25993 30034 ft 448 kts 14°
2026-04-26 05:18 36.56647 -97.24584 30567 ft 445 kts 14°
2026-04-26 05:19 36.59548 -97.23207 31017 ft 444 kts 14°
2026-04-26 05:19 36.62421 -97.21843 31449 ft 443 kts 14°
2026-04-26 05:19 36.65278 -97.20484 31887 ft 442 kts 14°
2026-04-26 05:19 36.68176 -97.19106 32316 ft 441 kts 14°
2026-04-26 05:20 36.71012 -97.17754 32736 ft 441 kts 13°
2026-04-26 05:20 36.73880 -97.16385 33170 ft 440 kts 14°
2026-04-26 05:20 36.76649 -97.14742 33530 ft 447 kts 20°
2026-04-26 05:20 36.79407 -97.12949 33965 ft 445 kts 20°
2026-04-26 05:21 36.82131 -97.11183 34383 ft 444 kts 20°
2026-04-26 05:21 36.84873 -97.09405 34810 ft 442 kts 20°
2026-04-26 05:21 36.87579 -97.07650 35219 ft 440 kts 20°
2026-04-26 05:21 36.90309 -97.05878 35604 ft 440 kts 20°
2026-04-26 05:22 36.93013 -97.04123 35954 ft 440 kts 20°
2026-04-26 05:22 36.95712 -97.02367 36301 ft 439 kts 19°
2026-04-26 05:22 36.98425 -97.00603 36661 ft 438 kts 20°
2026-04-26 05:22 37.01136 -96.98838 36808 ft 442 kts 19°
2026-04-26 05:23 37.06646 -96.95247 36837 ft 456 kts 20°
2026-04-26 05:23 37.12364 -96.91512 36845 ft 465 kts 20°
2026-04-26 05:24 37.18085 -96.87768 36844 ft 466 kts 20°
2026-04-26 05:24 37.23827 -96.84006 36840 ft 466 kts 20°
2026-04-26 05:25 37.29564 -96.80239 36841 ft 464 kts 20°
2026-04-26 05:25 37.35290 -96.76473 36844 ft 464 kts 20°
2026-04-26 05:26 37.41024 -96.72697 36848 ft 467 kts 20°
2026-04-26 05:26 37.46751 -96.68917 36853 ft 464 kts 20°
2026-04-26 05:27 37.52418 -96.65171 36859 ft 460 kts 20°
2026-04-26 05:27 37.58071 -96.61429 36853 ft 460 kts 20°
2026-04-26 05:28 37.63703 -96.57690 36855 ft 450 kts 20°
2026-04-26 05:28 37.66377 -96.55911 36757 ft 429 kts 19°
2026-04-26 05:28 37.68965 -96.54190 36468 ft 410 kts 19°
2026-04-26 05:29 37.71428 -96.52552 36104 ft 394 kts 18°
2026-04-26 05:29 37.73816 -96.50963 35634 ft 381 kts 18°
2026-04-26 05:29 37.76116 -96.49432 35142 ft 371 kts 18°
2026-04-26 05:29 37.78356 -96.47938 34623 ft 362 kts 18°
2026-04-26 05:30 37.80563 -96.46467 34065 ft 355 kts 18°
2026-04-26 05:30 37.82719 -96.45029 33470 ft 349 kts 18°
2026-04-26 05:30 37.84835 -96.43616 32865 ft 344 kts 18°
2026-04-26 05:30 37.86922 -96.42221 32251 ft 339 kts 18°
2026-04-26 05:31 37.89006 -96.40828 31629 ft 335 kts 18°
2026-04-26 05:31 37.91032 -96.39471 31031 ft 331 kts 19°
2026-04-26 05:31 37.93068 -96.38108 30428 ft 327 kts 19°
2026-04-26 05:31 37.95052 -96.36779 29864 ft 325 kts 19°
2026-04-26 05:32 37.99115 -96.34062 29444 ft 350 kts 21°
2026-04-26 05:32 38.01336 -96.32571 29046 ft 372 kts 21°
2026-04-26 05:32 38.03624 -96.31030 28611 ft 374 kts 21°
2026-04-26 05:33 38.05913 -96.29488 28186 ft 372 kts 21°
2026-04-26 05:33 38.08178 -96.27962 27775 ft 367 kts 21°
2026-04-26 05:33 38.10425 -96.26450 27370 ft 363 kts 21°
2026-04-26 05:33 38.12628 -96.24966 26975 ft 361 kts 21°
2026-04-26 05:34 38.14839 -96.23475 26577 ft 360 kts 21°
2026-04-26 05:34 38.17041 -96.21989 26179 ft 358 kts 22°
2026-04-26 05:34 38.19257 -96.20493 25777 ft 356 kts 22°
2026-04-26 05:34 38.21435 -96.19021 25385 ft 354 kts 22°
2026-04-26 05:35 38.23584 -96.17568 25094 ft 352 kts 22°
2026-04-26 05:35 38.25748 -96.16105 24709 ft 352 kts 22°
2026-04-26 05:35 38.27906 -96.14643 24323 ft 350 kts 23°
2026-04-26 05:35 38.29828 -96.12765 23962 ft 357 kts 41°
2026-04-26 05:36 38.31537 -96.10455 23557 ft 356 kts 43°
2026-04-26 05:36 38.33201 -96.08170 23165 ft 354 kts 43°
2026-04-26 05:36 38.34875 -96.05860 22772 ft 351 kts 43°
2026-04-26 05:36 38.36506 -96.03606 22392 ft 348 kts 43°
2026-04-26 05:37 38.38127 -96.01362 22015 ft 346 kts 43°
2026-04-26 05:37 38.39743 -95.99123 21640 ft 344 kts 43°
2026-04-26 05:37 38.41373 -95.96864 21254 ft 341 kts 43°
2026-04-26 05:37 38.42963 -95.94658 20882 ft 340 kts 43°
2026-04-26 05:38 38.44547 -95.92458 20513 ft 338 kts 44°
2026-04-26 05:38 38.46139 -95.90247 20140 ft 335 kts 44°
2026-04-26 05:38 38.47696 -95.88081 19774 ft 333 kts 44°
2026-04-26 05:38 38.49263 -95.85902 19407 ft 330 kts 44°
2026-04-26 05:39 38.50788 -95.83778 19052 ft 327 kts 44°
2026-04-26 05:39 38.52320 -95.81644 18690 ft 326 kts 44°
2026-04-26 05:39 38.53841 -95.79524 18337 ft 324 kts 44°
2026-04-26 05:39 38.55361 -95.77402 17982 ft 322 kts 44°
2026-04-26 05:40 38.56862 -95.75308 17625 ft 319 kts 44°
2026-04-26 05:40 38.58358 -95.73218 17272 ft 317 kts 44°
2026-04-26 05:40 38.59836 -95.71152 16929 ft 315 kts 44°
2026-04-26 05:40 38.61304 -95.69098 16579 ft 312 kts 44°
2026-04-26 05:41 38.62749 -95.67075 16234 ft 310 kts 44°
2026-04-26 05:41 38.64205 -95.65037 15898 ft 308 kts 44°
2026-04-26 05:41 38.65633 -95.63035 15567 ft 306 kts 45°
2026-04-26 05:41 38.67058 -95.61037 15224 ft 304 kts 44°
2026-04-26 05:42 38.68475 -95.59049 14888 ft 302 kts 44°
2026-04-26 05:42 38.69884 -95.57069 14557 ft 300 kts 45°
2026-04-26 05:42 38.71282 -95.55106 14233 ft 299 kts 45°
2026-04-26 05:42 38.72680 -95.53140 13899 ft 298 kts 45°
2026-04-26 05:43 38.74059 -95.51200 13576 ft 297 kts 45°
2026-04-26 05:43 38.75443 -95.49252 13249 ft 295 kts 45°
2026-04-26 05:43 38.76819 -95.47315 12930 ft 293 kts 45°
2026-04-26 05:43 38.78185 -95.45389 12604 ft 292 kts 46°
2026-04-26 05:44 38.79539 -95.43479 12290 ft 290 kts 46°
2026-04-26 05:44 38.80887 -95.41578 12007 ft 286 kts 46°
2026-04-26 05:44 38.82221 -95.39703 11993 ft 284 kts 47°
2026-04-26 05:44 38.83561 -95.37820 11987 ft 286 kts 47°
2026-04-26 05:45 38.84910 -95.35923 11987 ft 287 kts 47°
2026-04-26 05:45 38.86249 -95.34040 11993 ft 287 kts 48°
2026-04-26 05:45 38.87598 -95.32140 11980 ft 287 kts 48°
2026-04-26 05:45 38.88943 -95.30244 11983 ft 288 kts 48°
2026-04-26 05:46 38.90289 -95.28342 11950 ft 288 kts 48°
2026-04-26 05:46 38.91639 -95.26431 11726 ft 289 kts 49°
2026-04-26 05:46 38.92981 -95.24531 11439 ft 288 kts 49°
2026-04-26 05:46 38.94311 -95.22646 11109 ft 285 kts 49°
2026-04-26 05:47 38.95641 -95.20758 10786 ft 282 kts 49°
2026-04-26 05:47 38.96946 -95.18906 10476 ft 279 kts 49°
2026-04-26 05:47 38.98309 -95.17142 10166 ft 279 kts 34°
2026-04-26 05:47 39.00014 -95.16016 9913 ft 278 kts 26°
2026-04-26 05:48 39.01792 -95.14964 9598 ft 278 kts 26°
2026-04-26 05:48 39.03544 -95.13934 9289 ft 278 kts 26°
2026-04-26 05:48 39.05285 -95.12911 8953 ft 275 kts 26°
2026-04-26 05:48 39.07019 -95.11894 8652 ft 273 kts 26°
2026-04-26 05:49 39.08735 -95.10886 8370 ft 272 kts 26°
2026-04-26 05:49 39.12163 -95.08874 7751 ft 269 kts 26°
2026-04-26 05:49 39.13859 -95.07877 7464 ft 268 kts 26°
2026-04-26 05:50 39.15558 -95.06885 7185 ft 265 kts 26°
2026-04-26 05:50 39.17217 -95.05917 6892 ft 259 kts 26°
2026-04-26 05:50 39.18848 -95.04964 6615 ft 253 kts 26°
2026-04-26 05:50 39.20439 -95.04035 6322 ft 248 kts 26°
2026-04-26 05:51 39.21984 -95.03131 6065 ft 243 kts 27°
2026-04-26 05:51 39.23517 -95.02235 5789 ft 239 kts 27°
2026-04-26 05:51 39.25024 -95.01353 5531 ft 237 kts 27°
2026-04-26 05:51 39.26524 -95.00474 5279 ft 238 kts 27°
2026-04-26 05:52 39.27875 -94.99350 5019 ft 230 kts 57°
2026-04-26 05:52 39.28490 -94.97500 4765 ft 224 kts 80°
2026-04-26 05:52 39.28844 -94.95569 4491 ft 218 kts 81°
2026-04-26 05:52 39.29172 -94.93694 4140 ft 215 kts 81°
2026-04-26 05:53 39.29493 -94.91811 3818 ft 211 kts 82°
2026-04-26 05:53 39.29797 -94.90002 3540 ft 200 kts 82°
2026-04-26 05:53 39.30084 -94.88281 3283 ft 193 kts 82°
2026-04-26 05:53 39.30267 -94.86607 3025 ft 182 kts 96°
2026-04-26 05:54 39.30135 -94.85082 2905 ft 158 kts 100°
2026-04-26 05:54 39.30020 -94.83781 2701 ft 140 kts 100°
2026-04-26 05:54 39.29916 -94.82564 2511 ft 132 kts 100°
2026-04-26 05:54 39.29825 -94.81460 2338 ft 116 kts 99°
2026-04-26 05:55 39.29740 -94.80449 2175 ft 113 kts 99°
2026-04-26 05:55 39.29656 -94.79446 2050 ft 113 kts 99°
2026-04-26 05:55 39.29565 -94.78429 1908 ft 115 kts 98°
2026-04-26 05:55 39.29488 -94.77384 1756 ft 118 kts 97°
2026-04-26 05:56 39.29393 -94.76321 1601 ft 122 kts 98°
2026-04-26 05:56 39.29306 -94.75221 1438 ft 124 kts 96°
2026-04-26 05:56 39.29207 -94.74104 1271 ft 125 kts 97°
2026-04-26 05:56 39.29120 -94.73001 1113 ft 124 kts 95°
2026-04-26 05:57 39.29022 -94.71900 1008 ft 112 kts 95°
2026-04-26 05:57 39.28960 -94.71135 1011 ft 60 kts 98°
2026-04-26 05:57 39.28928 -94.70762 1014 ft 26 kts 95°
2026-04-26 05:57 39.28934 -94.70676 1015 ft 7 kts 40°
2026-04-26 05:58 39.28983 -94.70654 1015 ft 8 kts 13°
2026-04-26 05:58 39.29037 -94.70666 1014 ft 9 kts 305°
2026-04-26 05:58 39.29046 -94.70691 1013 ft 10 kts 289°